Location: East Horndon
(51.5667°N, 0.3500°E)
Time: 06:37:37
(UTC+00:00)

CZ-3 R/B - Pass Details

Date: 08 November 2025
Orbit: 547 x 10008 km, 28.3° (Epoch: 11 December)

Event Time Altitude Azimuth Distance (km) Brightness Sun altitude
Rises 05:07:25 0° 229° (SW) 7,354 5.6 -18.3°
Reaches altitude 10° 05:19:18 10° 193° (SSW) 3,802 4.5 -16.5°
Maximum altitude 05:19:50 10° 189° (S) 3,682 4.5 -16.4°
Drops below altitude 10° 05:20:22 10° 186° (S) 3,575 4.4 -16.3°
Sets 05:26:18 0° 138° (SE) 3,382 5.1 -15.4°
